GFSSW_prec_cloud_003.txt.gz
Cloud_Cover
14 9 38 5 9 15 92 18 10 8 15 72 36 63 77 17 5 5 5 0 0 0 0 0 0 0 0 0 0 0 0 0 0 0 0 0 1 98 36 0 1 0 0 0 0
0 0 2 3 8 2 0 14 5 1 4 2 6 12 19 32 4 3 5 2 0 0 0 0 0 0 0 0 0 0 0 0 0 0 93 5 99 100 57 0 57 5 0 0 0
0 0 0 0 3 4 0 0 0 0 0 0 4 5 4 9 0 0 0 0 0 0 0 0 0 0 0 0 0 0 0 0 0 0 10 25 6 100 5 0 22 8 4 0 0
1 0 0 0 0 0 0 0 0 0 0 1 1 0 0 0 0 0 0 0 0 0 0 0 0 0 0 0 0 3 0 0 0 0 3 76 97 100 0 0 3 3 0 1 0
3 2 0 2 2 2 0 0 0 0 3 14 23 0 0 6 0 5 0 0 0 0 0 0 0 5 4 0 0 3 0 0 0 0 5 40 5 100 2 0 0 4 4 2 5
5 4 5 5 5 5 5 0 0 0 17 20 30 6 20 93 3 0 2 2 0 0 0 1 5 15 26 5 4 4 3 0 0 0 0 1 4 40 28 5 0 0 3 4 0
5 4 5 5 5 5 5 5 6 6 13 35 97 10 82 94 59 4 0 2 4 5 5 5 5 41 12 5 5 23 5 5 5 3 0 0 5 0 0 0 0 0 0 0 0
91 97 8 68 18 19 48 71 84 49 54 55 89 2 92 100 26 5 5 2 3 5 4 5 5 10 43 30 7 5 6 57 94 5 5 4 7 28 0 0 1 0 0 0 0
100 26 5 100 44 9 5 41 65 100 100 93 39 8 97 100 99 5 5 5 41 42 5 0 5 40 98 10 5 68 97 54 97 100 4 20 100 100 88 1 3 0 0 0 0
97 56 50 5 5 6 5 5 5 8 8 35 82 98 100 100 100 100 100 14 10 5 16 5 6 42 29 5 15 18 6 6 53 100 86 48 100 100 100 100 100 65 2 3 0
6 5 11 6 91 100 11 0 6 4 10 14 35 6 100 49 100 100 100 100 100 70 17 5 5 40 15 5 5 5 6 57 100 33 6 100 98 100 100 100 100 100 79 5 5
100 100 100 20 17 10 13 5 5 5 44 5 30 83 94 100 100 100 100 100 100 94 77 79 68 14 6 5 5 32 5 81 100 100 90 92 96 100 100 100 100 100 100 100 100
100 100 100 100 8 5 5 5 21 3 5 100 26 9 10 95 100 100 100 100 100 76 42 40 6 5 5 5 1 40 75 38 12 68 90 74 100 100 100 100 100 100 100 100 100
100 100 100 100 12 22 5 5 7 5 5 8 99 100 41 84 100 100 100 98 100 84 90 59 99 94 37 35 2 44 49 23 6 7 80 56 29 100 100 100 100 100 100 100 100
100 100 100 100 84 55 16 6 6 39 66 3 5 21 99 95 100 100 100 98 84 97 100 100 100 100 85 22 93 100 76 5 54 95 13 100 34 100 100 100 100 100 100 100 84
100 100 100 100 100 100 92 39 5 50 85 5 5 5 10 50 83 100 100 100 100 100 92 60 67 100 98 97 98 26 6 5 5 7 6 96 14 100 100 100 100 100 100 100 100
97 100 100 99 100 100 100 87 54 100 99 5 5 22 84 69 30 55 58 76 100 85 100 79 92 99 57 8 46 95 77 23 27 5 5 1 7 100 100 100 100 100 100 44 21
100 100 100 100 100 100 100 100 100 55 5 46 98 85 6 90 92 84 70 23 99 91 57 79 100 98 99 7 9 22 97 100 100 55 2 3 1 98 100 100 100 100 74 5 8
100 100 100 100 100 100 100 100 5 5 100 100 100 67 65 100 100 94 100 45 52 100 100 74 10 68 59 90 100 100 96 100 100 100 99 81 21 5 100 100 100 43 19 100 100
100 100 100 100 100 100 100 100 99 100 100 100 100 100 63 71 98 100 98 16 29 38 100 100 97 5 36 100 20 100 100 100 100 100 100 100 100 74 100 100 100 100 100 99 100
100 100 100 100 100 100 100 100 100 100 100 100 100 100 100 100 100 100 83 13 100 100 95 98 100 57 100 100 100 100 100 100 100 100 100 100 100 100 86 100 100 100 100 100 100
100 100 100 100 100 100 100 100 100 100 100 100 100 100 100 100 100 100 100 100 99 100 100 100 100 100 100 100 100 100 100 100 100 100 100 100 100 100 100 100 100 100 100 100 100
100 100 100 100 100 100 100 100 100 100 100 100 100 100 100 100 100 100 100 100 100 100 100 100 100 100 100 100 100 100 100 100 100 100 100 100 100 100 100 100 100 100 100 100 100
95 100 100 100 100 100 100 100 100 100 100 100 100 100 100 100 100 100 100 100 100 100 100 100 100 100 100 94 22 42 53 73 76 96 77 84 97 54 31 72 98 100 96 12 7
8 14 58 91 100 100 99 100 100 100 100 100 100 100 100 100 100 100 100 100 100 100 100 100 100 97 77 87 100 99 89 8 93 86 100 96 100 4 18 5 0 4 7 4 0
5 5 44 81 89 90 100 60 63 99 100 100 100 100 100 100 100 100 100 100 100 87 64 73 94 100 69 5 64 98 5 5 5 70 100 100 33 5 5 5 5 2 0 0 1
5 10 20 6 5 18 7 5 5 5 28 77 26 84 97 81 52 57 84 90 100 98 100 100 100 100 95 19 100 98 1 0 2 0 0 0 2 7 5 5 5 5 5 5 7

GFSSW_prec_cloud_006.txt.gz
Cloud_Cover
0 0 0 4 4 5 29 5 33 63 22 19 8 58 54 16 5 5 5 5 4 0 0 0 0 0 0 0 0 0 0 0 0 0 7 5 48 100 5 0 2 70 0 0 0
0 0 0 0 0 1 4 5 5 0 1 0 0 3 5 20 9 8 5 5 2 0 0 0 0 0 0 0 2 0 0 0 0 0 4 5 14 81 5 0 4 26 0 0 0
0 0 0 0 0 0 2 0 0 0 0 0 0 0 5 2 4 4 4 2 0 0 0 0 0 0 0 0 4 5 0 0 0 0 0 4 71 100 2 0 0 11 0 0 0
5 1 4 3 0 0 0 0 0 0 0 0 0 0 0 0 0 0 0 0 0 0 0 0 0 0 0 0 0 6 1 0 0 0 0 51 98 100 1 0 1 1 5 0 0
5 5 5 5 5 0 0 1 5 5 3 10 16 0 0 4 0 0 1 0 0 0 0 0 0 0 0 4 1 0 0 0 0 0 0 12 47 100 15 1 0 0 9 24 1
5 5 5 5 5 5 5 5 16 37 10 25 26 4 8 9 0 0 5 5 5 3 0 0 3 0 2 4 4 5 4 5 4 4 0 0 1 20 14 3 5 2 2 0 5
5 5 3 5 5 5 48 67 5 5 18 26 69 49 98 37 21 4 3 32 38 5 5 0 0 0 1 5 5 5 6 10 7 5 2 4 84 27 0 0 5 0 0 0 0
5 87 51 10 15 42 15 8 52 14 90 33 100 100 100 100 93 19 35 5 0 0 5 4 4 2 5 5 5 5 36 90 95 5 5 5 92 100 58 0 78 77 1 0 0
5 4 26 18 17 45 5 35 5 5 32 92 74 83 100 100 100 100 34 32 7 4 0 0 5 3 5 4 15 75 65 19 93 62 5 60 94 93 95 82 100 100 100 3 0
28 5 5 5 4 5 5 5 4 1 3 67 99 94 99 100 100 100 100 100 97 100 67 58 5 5 5 4 5 9 77 96 100 81 5 41 24 100 100 100 100 100 100 88 43
79 60 48 78 5 5 16 43 93 51 6 5 56 99 70 90 100 100 100 100 100 99 79 77 6 23 5 5 13 5 5 8 98 100 71 100 18 100 100 100 100 98 100 100 100
100 100 100 100 90 4 28 14 98 35 8 10 5 47 100 75 99 100 100 100 100 100 100 100 44 88 20 8 98 50 17 20 61 12 69 100 100 100 70 23 6 61 91 99 91
100 100 100 100 72 0 1 3 1 0 17 97 16 2 4 100 100 100 100 100 100 100 100 98 86 99 100 96 71 64 96 100 68 51 64 99 100 100 100 100 64 70 5 5 27
96 98 94 14 5 5 5 5 1 2 0 1 17 5 0 5 73 39 99 100 100 100 100 100 100 100 100 100 100 100 100 77 43 5 98 100 99 100 100 100 100 79 41 54 9
98 99 99 28 5 5 5 5 5 4 7 0 4 5 5 5 5 5 5 42 47 100 100 79 99 100 100 100 100 100 100 100 100 100 100 100 92 100 100 100 100 94 88 37 100
81 100 99 90 84 45 36 5 5 17 31 4 5 6 66 97 36 5 5 20 14 5 20 40 29 14 5 6 79 84 81 89 80 80 64 100 100 100 100 100 100 100 100 24 20
100 100 100 100 99 56 47 17 36 78 18 5 42 48 85 87 100 78 5 87 88 17 68 49 47 94 8 5 48 75 9 12 8 21 88 76 19 99 100 34 34 56 19 5 6
100 100 100 100 100 100 100 99 80 42 96 66 75 49 60 80 93 77 86 10 100 100 65 6 97 50 74 5 23 7 78 100 87 4 26 7 63 99 100 92 5 5 5 5 5
80 100 100 100 100 100 100 100 97 100 100 100 100 99 57 97 100 100 100 97 74 100 100 92 28 65 19 14 37 18 27 96 100 82 53 4 44 98 100 70 33 70 40 14 5
100 100 100 100 100 100 100 100 100 100 100 100 100 100 64 97 100 100 69 86 100 100 100 100 82 5 97 96 88 100 92 28 93 100 98 44 15 4 52 88 100 100 100 100 88
100 100 100 100 100 100 100 100 100 100 100 100 100 100 100 100 100 100 100 100 100 100 100 100 100 8 5 26 69 78 75 100 100 100 100 100 100 100 100 100 100 100 100 100 100
100 100 100 100 100 99 100 100 100 100 100 100 100 100 100 100 100 100 100 100 100 100 100 100 100 98 100 99 55 100 100 100 100 100 100 100 100 100 100 100 100 100 100 100 100
100 100 100 100 100 100 98 97 72 100 100 64 88 100 100 100 100 100 100 100 100 100 100 100 100 100 100 100 100 100 100 100 100 100 100 100 100 100 100 100 100 100 81 5 52
100 100 100 100 80 12 22 22 66 71 100 6 76 86 72 100 100 100 100 100 100 100 100 100 100 100 100 100 100 100 100 100 100 100 100 100 100 100 100 100 56 5 28 5 3
100 100 100 59 100 100 91 12 52 84 29 5 3 5 16 28 8 5 36 100 100 100 100 100 100 100 100 100 100 100 100 100 99 91 100 35 97 3 4 100 12 5 5 5 0
100 89 100 98 62 100 100 57 85 12 58 5 5 5 1 15 12 5 5 52 85 55 92 98 100 77 6 5 24 76 5 5 27 46 96 97 72 5 4 0 4 5 0 0 0
21 21 22 12 15 5 5 5 5 5 7 5 9 5 5 5 5 11 63 26 10 26 9 92 99 72 83 23 100 100 8 4 0 0 0 0 1 0 0 0 1 5 5 5 5

GFSSW_prec_cloud_009.txt.gz
Cloud_Cover
0 2 0 0 5 4 5 3 5 44 7 15 55 9 23 6 7 30 5 2 1 0 1 0 0 0 0 0 0 0 0 0 0 0 0 1 55 100 2 0 12 5 0 0 0
0 0 0 0 0 0 0 0 1 6 5 21 3 0 0 2 0 0 3 5 5 5 5 0 0 0 0 3 0 4 0 0 0 0 0 1 12 100 77 0 5 17 0 0 0
5 0 0 0 0 0 0 0 0 0 4 5 4 0 0 0 0 0 4 2 1 0 0 0 0 0 0 5 0 5 0 0 0 0 0 0 4 62 96 46 99 6 5 5 0
16 8 5 5 5 4 5 5 0 0 0 3 4 2 0 0 0 0 0 0 0 0 0 0 0 0 0 0 0 6 5 2 2 0 0 1 1 5 100 4 29 5 5 5 5
18 100 100 89 54 37 19 24 5 0 9 17 34 59 68 15 0 0 0 0 0 0 0 0 0 0 2 2 0 5 5 4 0 0 0 0 1 5 99 6 7 5 5 17 0
5 31 11 5 44 69 100 93 26 52 7 13 99 100 100 84 4 3 5 5 5 5 5 5 5 5 74 32 5 5 5 0 0 4 0 2 5 1 0 0 5 2 5 3 0
5 34 99 75 8 15 48 7 18 5 87 78 100 100 100 99 82 15 69 96 91 25 5 5 5 5 5 6 4 0 1 5 3 0 4 5 92 0 2 0 42 3 0 0 0
5 36 5 5 58 54 100 5 5 13 20 100 100 100 100 100 100 100 100 100 96 99 100 19 5 0 5 4 3 4 5 63 37 4 0 2 90 23 20 0 3 3 0 0 0
100 11 80 61 40 19 88 24 30 9 5 13 36 58 98 100 100 100 92 93 100 32 38 48 11 14 10 8 2 5 5 25 93 79 0 2 5 72 12 5 15 4 9 88 94
100 100 82 11 6 32 100 83 13 33 12 5 17 49 50 100 100 100 100 91 97 99 52 94 89 95 97 5 17 91 96 91 99 99 23 65 17 93 45 5 5 4 5 1 5
100 100 100 100 84 42 5 22 32 5 14 86 60 96 6 70 100 100 100 100 74 95 67 100 75 100 100 100 100 32 25 100 100 100 100 100 82 91 43 100 100 46 5 1 4
100 100 44 98 100 100 57 5 5 4 12 20 91 48 94 7 73 100 100 100 100 100 100 74 35 92 99 100 100 100 72 99 100 100 100 37 66 48 80 5 86 95 81 69 27
98 100 43 22 74 23 58 81 20 2 0 5 2 6 6 5 5 30 86 100 100 44 74 100 99 78 79 78 96 84 100 100 100 100 100 100 100 98 100 22 5 2 12 96 74
40 100 81 5 8 5 7 5 8 3 0 0 1 4 4 4 3 5 5 5 10 37 31 82 100 83 7 97 100 100 100 85 99 100 100 100 100 100 100 97 29 100 74 5 82
98 99 100 91 80 6 5 5 5 5 6 1 1 0 4 5 5 5 5 5 25 23 55 100 100 100 100 100 77 100 97 55 19 5 60 100 60 100 100 100 100 100 100 98 81
100 100 50 83 26 6 9 49 27 73 96 5 5 5 5 7 77 53 15 38 14 12 70 93 7 37 100 100 100 100 100 100 100 100 63 99 84 100 98 97 100 100 100 100 100
100 100 100 100 91 29 6 58 88 100 94 55 80 66 94 99 100 99 100 100 100 75 21 87 14 5 56 16 61 81 98 48 6 21 100 96 10 99 100 100 9 91 100 100 57
100 98 100 100 100 100 100 100 100 81 70 94 100 93 100 98 100 100 100 100 100 100 83 100 98 96 9 99 100 98 100 100 96 18 6 47 98 100 100 100 99 12 1 72 100
100 100 100 100 99 100 100 100 62 38 96 100 100 100 100 99 100 68 98 100 100 100 100 100 100 100 80 100 100 100 100 100 100 17 51 96 86 100 100 96 91 15 100 3 71
100 100 100 100 100 100 100 100 100 100 100 100 100 99 99 100 100 99 83 100 100 100 100 100 100 100 100 96 94 100 100 100 100 100 100 16 8 98 100 11 66 5 13 77 6
100 100 100 100 100 100 100 100 100 100 100 100 90 86 100 100 100 100 100 100 100 100 100 100 100 17 100 100 100 100 100 100 100 100 100 90 6 8 9 81 9 44 13 3 25
96 57 98 100 100 93 56 99 100 100 94 100 99 94 100 100 100 100 100 100 100 68 100 100 100 100 100 100 100 100 100 100 100 100 100 100 100 99 98 96 96 100 97 81 92
99 93 99 100 40 33 100 100 100 41 84 100 100 100 100 100 100 100 44 72 98 100 14 100 100 95 99 100 100 100 100 100 100 100 100 100 100 100 100 100 100 96 97 100 100
100 89 56 100 100 100 100 100 100 100 100 100 100 100 100 100 94 40 10 26 6 53 82 100 89 12 37 4 14 98 94 100 100 100 100 100 100 100 100 100 84 46 19 56 100
100 100 96 100 100 100 100 100 100 100 100 100 100 100 100 100 100 69 41 22 26 17 13 78 23 34 42 7 5 84 100 38 28 14 77 89 100 100 88 81 93 100 41 15 16
100 100 100 100 100 100 100 100 100 100 100 100 100 100 100 100 90 66 75 31 5 3 5 72 81 63 5 5 5 5 0 0 3 5 5 6 67 3 12 0 4 2 0 0 5
100 100 100 100 100 100 100 100 100 100 100 100 100 100 97 69 13 5 5 13 5 16 26 5 28 13 4 2 5 55 0 2 0 0 6 75 8 0 0 0 0 0 0 2 8

GFSSW_prec_cloud_015.txt.gz
Cloud_Cover
58 22 5 5 5 6 5 4 1 5 5 9 5 5 38 98 62 19 21 5 0 0 1 2 1 5 5 5 0 0 0 0 0 0 0 0 0 0 0 0 2 55 5 0 0
3 4 5 4 2 2 4 0 0 0 1 0 0 2 2 8 46 5 5 0 0 0 0 0 0 0 0 0 0 0 0 0 0 0 0 0 0 1 1 0 0 0 2 0 0
5 5 39 57 36 5 0 0 1 0 0 2 4 2 0 0 4 1 1 1 5 4 0 0 0 0 0 0 0 0 0 0 0 0 0 0 0 0 0 0 0 0 0 0 0
5 5 22 70 100 87 9 5 5 5 5 5 5 5 0 0 1 6 5 5 14 5 5 0 0 0 0 0 1 0 0 0 0 0 0 0 0 0 0 5 0 0 0 0 0
6 5 18 30 61 48 5 5 8 5 5 23 10 5 5 3 4 40 99 98 64 19 28 25 4 3 0 2 0 0 0 0 0 0 0 0 0 0 0 1 5 0 0 0 0
5 5 6 5 5 9 18 5 5 5 86 100 91 77 84 15 37 42 100 100 100 100 100 98 93 93 100 54 15 76 65 26 2 0 0 0 0 5 0 5 5 4 0 0 0
51 5 5 15 22 9 51 24 58 94 100 100 100 100 100 100 97 80 46 26 83 100 84 9 14 98 100 100 100 90 80 76 38 5 5 0 3 2 0 5 6 0 1 1 3
100 100 100 100 92 98 35 5 5 33 28 32 5 54 85 84 9 5 57 38 5 6 5 6 5 8 23 78 94 100 95 100 100 32 46 5 87 100 1 0 5 4 2 5 5
100 100 100 21 47 94 54 76 17 5 5 5 14 46 13 28 17 5 5 5 5 5 5 6 12 15 90 51 42 97 100 84 93 100 100 50 78 96 99 21 1 0 0 5 4
97 100 100 94 64 100 81 26 22 64 62 29 9 30 37 58 5 5 5 5 5 10 5 6 4 5 3 5 39 51 98 99 86 93 94 100 100 75 42 100 98 50 2 5 0
100 99 100 100 100 100 100 100 8 20 57 58 12 51 16 49 7 67 7 10 5 10 5 5 5 4 0 0 0 5 68 38 100 100 25 100 100 100 100 100 100 100 100 100 68
100 100 100 63 100 100 88 100 95 82 100 83 35 61 72 11 52 99 100 55 12 12 8 5 28 8 4 6 46 6 5 5 27 5 6 74 100 100 100 100 100 100 100 100 100
100 100 94 100 100 99 99 95 100 84 44 99 88 9 21 85 94 100 77 30 51 66 29 10 44 6 15 5 6 22 5 0 3 4 7 59 93 100 100 100 100 100 100 100 100
100 97 100 50 42 95 69 90 40 100 81 80 79 23 26 5 5 20 97 93 84 23 73 90 13 5 5 5 5 18 5 5 4 3 6 11 2 100 64 100 100 100 100 100 100
100 100 43 82 73 100 32 14 7 42 98 98 100 58 76 100 97 71 71 14 6 5 23 23 88 13 5 5 8 44 52 5 5 5 10 80 6 50 6 84 99 98 100 98 100
100 100 99 69 43 67 51 100 89 37 66 5 5 5 26 49 86 100 99 100 74 89 38 26 44 54 7 66 44 6 16 57 95 53 5 6 5 86 14 5 5 7 10 57 51
100 100 100 82 100 100 99 86 99 100 68 57 21 16 9 74 99 100 100 97 96 59 71 54 28 10 66 34 14 87 56 96 100 98 84 90 7 35 5 3 3 0 5 63 99
100 100 100 100 100 100 100 100 100 99 88 16 32 93 63 100 96 77 64 48 47 97 20 12 82 40 5 9 15 91 98 97 100 100 100 100 94 57 99 3 5 91 74 100 100
100 100 100 100 100 100 100 100 100 86 88 99 84 99 95 86 77 67 18 49 96 99 100 84 34 33 100 76 98 100 100 100 100 100 100 100 100 100 99 99 46 100 58 97 100
100 100 100 100 100 100 100 100 100 97 64 97 55 82 27 96 56 13 12 87 83 72 71 82 66 9 83 90 100 100 100 100 100 100 100 100 94 7 5 73 97 100 100 100 76
100 100 100 100 100 100 100 100 97 100 95 62 59 100 99 100 95 38 14 55 57 90 100 100 100 99 86 99 100 100 100 100 88 100 100 58 6 24 77 100 6 6 10 15 66
100 100 100 100 100 100 100 100 100 100 100 100 97 100 100 92 80 71 5 36 100 56 100 100 100 91 100 100 100 100 100 100 100 100 34 97 20 52 98 100 100 79 4 4 6
100 100 100 100 100 100 100 100 100 84 100 100 100 100 100 97 98 100 96 68 98 83 100 100 98 100 99 100 100 100 100 100 100 94 100 100 100 100 100 100 94 5 0 0 0
100 100 100 100 100 100 100 100 63 87 95 100 99 95 95 100 100 98 99 100 100 100 100 100 100 100 77 100 100 100 100 100 100 100 100 100 100 100 100 85 5 5 0 0 2
100 100 100 100 100 100 100 91 60 100 100 100 76 100 100 100 100 100 100 100 100 100 100 100 100 100 100 100 100 100 100 100 100 100 100 100 100 56 18 1 1 1 0 3 5
100 100 100 100 100 100 100 100 100 100 100 100 100 100 100 100 100 100 100 100 100 100 100 100 100 100 100 100 100 100 100 100 100 100 100 29 0 0 0 0 0 0 5 5 4
100 100 100 100 100 100 100 100 100 100 100 100 100 100 100 100 100 100 100 100 100 100 100 100 100 100 100 100 100 100 100 100 59 0 0 0 0 5 0 2 0 3 5 5 5

GFSSW_prec_cloud_021.txt.gz
Cloud_Cover
66 98 100 99 100 69 19 5 5 17 1 13 25 16 5 6 24 53 42 66 35 5 5 3 0 0 0 0 0 0 0 0 0 0 0 0 0 0 0 0 0 0 0 0 0
24 51 60 92 10 82 92 5 5 25 26 18 34 28 11 5 2 13 27 18 11 5 5 2 1 5 4 0 0 0 0 0 0 0 0 0 0 0 0 0 0 0 0 0 0
5 10 96 100 100 41 74 88 5 24 19 5 6 5 0 5 0 2 4 4 5 5 5 4 5 5 0 0 0 0 0 0 0 0 0 0 0 0 0 0 0 0 0 0 0
90 22 9 7 3 57 54 22 50 43 47 31 5 5 5 5 0 5 5 0 0 0 0 4 5 5 5 33 12 4 3 0 0 0 0 0 0 0 0 0 0 0 0 0 0
100 100 37 88 98 24 14 5 20 56 51 16 5 23 41 5 5 5 5 5 4 0 4 37 66 16 100 100 89 100 6 5 5 3 46 5 2 2 0 0 0 0 0 0 0
100 100 92 70 5 10 5 5 42 89 47 20 5 8 20 13 24 55 20 5 5 5 64 100 100 100 100 33 5 29 5 5 5 5 6 5 5 4 0 0 0 5 2 0 0
100 95 74 62 33 5 22 5 63 99 67 36 90 82 53 5 5 44 89 80 76 100 90 50 62 100 100 20 5 5 5 5 5 5 5 5 3 0 0 0 0 0 27 49 5
100 100 100 100 92 58 55 80 100 83 47 35 100 94 76 66 27 5 46 55 51 63 64 5 5 7 46 9 5 5 5 5 5 5 6 21 69 5 3 0 0 0 0 30 61
100 100 100 100 100 99 80 100 100 100 81 58 53 91 100 100 35 5 5 5 10 50 64 11 5 16 5 5 6 15 5 7 36 5 5 44 85 5 5 5 5 4 5 5 5
100 100 100 100 100 100 100 100 100 100 100 100 86 5 13 25 5 5 5 6 5 5 5 5 8 39 5 5 51 12 22 61 88 5 5 47 100 9 6 54 53 55 86 20 68
100 100 100 100 100 100 100 100 100 100 100 99 58 5 5 5 5 5 5 5 5 5 5 47 74 42 5 5 5 10 36 94 93 5 17 7 6 28 5 5 5 5 5 60 92
100 100 100 100 100 100 100 100 100 100 97 78 48 74 47 34 41 82 56 49 11 11 9 14 80 36 15 6 5 5 5 22 8 5 5 5 20 5 5 5 5 5 4 5 5
100 100 100 100 100 100 100 100 100 100 18 99 19 52 32 31 35 99 86 9 5 5 12 5 7 5 5 8 12 5 5 4 4 4 1 5 5 12 5 5 5 5 5 4 4
100 100 100 100 100 100 100 100 100 79 9 28 76 7 74 93 65 100 80 5 6 31 54 19 31 5 5 5 57 94 5 5 5 5 5 6 5 85 50 75 9 5 6 5 5
100 100 100 100 100 100 100 100 100 37 5 34 27 57 96 100 96 100 49 6 46 41 5 5 5 7 5 7 15 57 10 2 3 1 5 94 16 6 100 86 43 12 6 7 5
100 100 100 100 100 100 100 100 100 67 52 5 7 100 100 98 15 15 18 61 59 81 7 40 15 11 100 100 55 99 35 12 5 3 5 11 8 22 18 35 45 9 16 60 5
100 100 100 100 100 100 100 100 97 94 91 47 15 94 100 66 59 74 75 75 100 100 76 50 7 50 100 100 63 82 21 44 45 77 80 20 41 53 7 49 79 95 7 10 50
100 100 100 100 100 100 100 100 100 100 100 100 100 100 99 100 99 100 98 100 100 100 99 69 100 24 100 83 100 96 100 100 10 95 98 95 85 99 98 58 94 99 97 90 5
100 100 100 100 100 100 100 100 100 100 89 100 91 97 100 100 100 99 100 100 100 100 100 82 54 100 98 100 100 100 100 92 20 85 73 90 100 100 97 100 61 93 98 8 5
100 100 100 100 100 100 100 100 100 100 100 100 100 100 100 100 93 100 99 100 100 100 100 95 71 96 100 100 98 100 61 90 100 76 86 6 36 96 98 82 100 100 100 81 46
100 100 100 100 100 100 100 100 100 100 100 100 100 100 100 100 100 90 20 82 100 100 73 58 83 100 96 100 100 100 90 100 68 84 100 16 48 17 99 100 100 100 98 21 6
100 100 100 100 100 100 100 100 100 100 100 100 100 100 100 100 98 97 99 86 99 100 100 99 47 92 100 100 92 40 91 78 55 68 69 34 5 68 100 100 100 99 19 5 71
100 100 100 100 100 100 100 100 100 100 100 100 100 100 100 100 100 100 100 100 100 100 100 100 91 100 100 91 57 63 75 92 80 96 94 100 70 100 100 100 100 96 38 13 95
100 100 100 100 100 100 100 100 100 100 100 100 100 100 100 100 100 89 100 100 100 83 92 100 76 43 97 94 87 30 65 39 71 100 100 100 100 100 100 100 93 47 10 79 100
100 100 100 100 100 100 100 100 100 100 100 100 100 100 100 100 100 100 88 100 100 93 85 100 95 62 76 43 64 5 7 43 98 100 100 100 94 100 100 100 92 21 27 85 99
100 100 100 100 100 100 100 100 100 100 100 100 100 100 100 100 100 100 100 100 100 97 100 100 88 100 100 72 17 28 51 100 100 100 100 100 18 100 92 98 90 85 100 100 100
100 100 100 100 100 100 100 100 100 100 100 100 100 100 100 100 100 100 100 100 98 80 54 87 100 97 64 77 100 83 96 100 100 100 100 80 100 100 100 100 100 100 100 100 100

GFSSW_prec_cloud_024.txt.gz
Cloud_Cover
54 7 6 29 54 9 87 15 68 62 6 32 33 28 26 7 5 3 5 5 5 35 65 44 8 5 4 0 0 0 0 0 0 0 0 0 0 0 0 0 0 0 0 0 0
100 100 97 81 97 100 80 100 99 5 20 28 51 9 5 4 0 5 5 5 5 18 10 58 5 5 0 1 5 0 0 0 0 0 0 0 0 0 0 0 0 0 0 0 0
100 100 100 100 28 92 100 68 39 100 88 32 25 37 5 5 0 0 4 5 5 5 9 10 5 3 0 5 4 0 0 0 0 0 0 0 0 0 0 0 0 0 4 1 0
100 100 100 100 95 100 100 100 80 44 49 74 57 53 5 5 2 0 2 0 1 0 1 0 0 5 5 5 1 5 5 2 5 5 5 5 5 0 4 3 3 0 0 0 5
100 99 100 90 70 45 17 25 71 81 79 44 23 5 5 1 1 5 2 1 5 5 3 0 0 5 17 14 15 6 4 2 2 5 42 5 5 0 0 1 4 5 1 1 1
42 98 100 92 100 99 48 96 100 43 41 47 5 5 5 4 5 5 5 5 5 5 5 5 1 9 33 82 89 9 4 4 0 2 2 10 47 4 0 0 0 0 0 0 1
100 97 95 100 100 100 80 37 22 28 12 5 6 7 46 5 5 5 5 5 5 5 5 5 62 96 71 88 100 40 6 5 5 0 2 4 0 0 0 0 0 0 0 0 0
100 100 100 100 100 100 100 81 82 25 5 5 10 49 33 17 12 6 5 5 5 21 24 5 23 80 52 5 4 5 72 25 5 5 5 18 14 4 5 4 2 0 0 0 0
100 100 100 88 100 100 100 100 74 72 28 14 32 19 83 100 90 65 8 5 5 74 65 5 5 21 5 5 65 46 55 10 5 5 5 10 17 5 5 5 3 4 5 5 3
100 100 100 100 99 100 100 100 100 91 74 46 70 57 89 46 86 6 5 5 8 22 14 14 63 16 5 5 87 5 18 67 5 5 5 85 100 53 7 19 5 5 7 69 84
100 100 100 100 100 100 100 100 100 100 100 45 85 80 45 8 6 5 5 22 83 20 5 37 96 53 7 58 12 5 5 6 5 4 20 29 5 6 5 5 5 5 5 5 44
100 100 100 100 100 100 100 100 100 100 100 100 100 100 100 99 27 27 5 5 5 13 5 16 52 22 71 39 64 39 4 5 5 5 5 29 36 10 5 5 5 0 1 5 17
100 100 100 100 100 100 100 100 100 100 54 100 99 100 42 80 100 98 94 94 11 5 5 5 5 28 8 5 43 5 5 1 5 3 5 4 3 5 4 5 0 4 8 5 4
100 100 100 100 100 100 100 100 100 100 7 100 99 44 99 99 48 100 100 69 98 77 11 8 54 5 13 77 3 5 0 5 0 3 5 5 4 5 11 5 5 6 7 1 1
100 100 100 100 100 100 100 100 100 100 14 49 100 100 100 100 100 100 100 100 72 84 29 40 49 40 38 5 5 5 5 5 5 19 66 100 4 5 7 88 100 99 73 55 14
100 100 100 100 100 100 100 100 100 96 42 14 100 100 100 100 66 100 100 100 100 99 100 92 33 25 75 45 5 84 34 5 19 39 11 97 71 99 100 100 100 100 100 100 97
100 100 100 100 100 100 100 100 100 84 92 100 100 100 100 100 100 77 16 20 42 86 100 40 13 98 92 70 44 5 21 41 31 100 99 100 100 100 98 92 100 100 100 90 20
100 100 100 100 100 100 100 100 100 58 100 100 95 100 100 100 100 100 100 53 93 75 72 22 100 93 100 99 97 23 40 44 36 92 87 98 94 100 91 66 100 100 100 100 100
100 100 100 100 100 100 100 100 96 100 100 100 100 100 100 100 100 100 100 100 100 100 79 74 52 100 100 100 100 100 100 44 8 66 20 98 100 98 100 100 100 94 9 76 93
100 100 100 100 100 100 100 100 100 100 100 100 100 100 100 100 100 100 100 100 100 100 100 100 100 100 100 100 100 100 100 100 100 60 75 100 100 100 100 100 92 5 29 13 12
100 100 100 100 100 100 100 100 100 100 100 100 100 100 100 100 100 100 88 100 100 100 100 100 100 100 100 100 100 100 100 100 100 53 14 39 74 100 100 100 100 16 41 9 5
100 100 100 100 100 100 100 100 100 85 100 100 100 100 100 100 100 100 100 100 100 100 100 100 100 100 100 100 100 100 100 100 100 100 53 34 85 76 48 47 23 5 5 35 6
100 100 100 100 100 100 100 100 99 100 100 100 100 100 100 100 100 100 100 100 100 100 100 100 100 100 100 100 100 100 100 100 100 94 14 99 81 60 22 6 22 32 18 22 100
100 100 100 100 100 100 100 100 100 100 100 100 100 100 100 100 100 100 100 100 100 100 100 100 100 100 100 100 100 100 73 82 100 92 74 68 68 74 98 100 38 31 82 99 5
100 100 100 100 100 100 100 100 100 100 100 100 100 100 100 100 100 100 100 100 100 100 100 100 100 100 100 100 100 100 100 100 100 100 100 97 100 100 100 45 92 100 100 98 40
100 100 100 100 100 100 100 100 100 100 100 100 100 100 100 100 100 100 100 100 100 100 100 100 100 100 100 100 100 100 100 100 100 100 100 100 43 98 100 100 100 100 82 87 100
100 100 100 100 100 100 100 100 100 100 100 100 100 100 100 100 100 100 100 100 100 100 100 100 100 100 100 100 100 100 100 100 78 7 36 61 92 100 100 99 93 100 100 98 23

GFSSW_prec_cloud_027.txt.gz
Cloud_Cover
29 5 5 5 9 95 99 44 5 23 5 51 32 13 4 5 0 1 3 0 3 5 5 5 5 5 5 0 0 0 0 0 0 0 0 0 0 0 0 0 0 0 0 0 0
5 41 14 15 43 45 90 22 5 40 60 44 16 3 5 1 0 3 0 1 5 3 5 5 5 5 5 4 0 0 4 0 0 0 0 0 0 0 0 0 0 0 0 0 0
23 15 16 29 93 97 82 100 100 49 100 88 40 5 5 5 6 3 2 0 3 5 3 5 3 5 5 0 0 0 2 5 4 0 0 0 0 0 0 0 0 0 0 0 0
6 56 6 100 96 100 100 36 100 100 100 57 98 99 11 7 4 2 0 4 0 2 2 0 0 0 0 0 0 0 4 5 0 2 0 0 0 0 4 0 0 0 0 3 5
61 9 99 64 100 100 100 56 100 100 100 100 57 5 31 5 10 5 5 0 0 0 0 0 0 0 0 0 0 2 4 5 5 3 5 0 0 2 4 0 0 0 0 0 0
100 100 24 97 56 100 99 54 94 72 80 37 48 53 19 11 5 4 5 2 0 4 3 5 5 1 0 1 0 1 5 5 5 3 0 0 0 0 0 0 0 0 0 0 0
100 100 100 100 99 97 76 82 78 67 49 63 44 42 4 2 5 5 5 5 5 5 5 5 5 5 2 5 3 5 5 6 2 1 5 5 0 5 5 5 5 0 0 0 0
100 100 100 100 100 100 99 96 64 100 84 61 57 16 5 5 5 5 5 5 5 5 5 4 2 5 5 5 5 5 12 5 5 5 22 5 2 4 4 5 2 0 0 0 0
100 100 100 100 100 100 100 100 93 79 100 76 40 57 19 5 5 5 5 5 33 31 5 5 5 9 63 4 5 5 38 5 5 5 5 5 5 5 5 5 5 6 5 2 0
100 100 100 100 100 100 100 100 100 94 72 95 61 33 100 5 5 5 5 5 13 10 13 27 23 76 55 5 60 6 23 5 5 5 5 5 12 5 5 5 5 5 5 0 0
100 100 100 100 100 100 100 100 100 100 100 100 94 5 94 31 84 32 5 5 6 43 28 57 80 85 5 39 54 18 20 10 5 0 5 5 65 99 7 8 5 5 5 1 0
100 100 100 100 100 100 100 100 100 100 100 100 100 100 99 100 99 100 37 5 6 14 38 16 49 6 5 66 39 66 25 93 5 5 3 0 32 79 5 5 0 3 3 2 5
100 100 100 100 100 100 100 100 100 100 100 100 100 100 90 100 100 100 100 100 100 28 42 23 100 15 5 5 12 5 41 81 10 5 0 0 3 3 5 5 5 5 2 2 26
100 100 100 100 100 100 100 100 100 100 13 100 100 100 100 100 69 100 100 100 100 98 85 20 94 53 51 59 8 20 79 87 34 2 0 1 5 5 5 7 34 31 34 63 100
100 100 100 100 100 100 100 100 98 86 6 76 100 99 100 100 100 100 100 100 86 100 94 95 74 99 100 88 9 24 5 5 5 5 5 100 1 57 100 100 81 100 100 76 19
100 100 100 100 100 100 100 100 98 94 49 4 90 100 100 100 100 100 100 100 100 100 100 100 96 100 100 100 100 100 62 5 23 5 16 71 5 100 100 100 100 100 100 100 100
100 100 100 100 100 100 100 100 100 77 5 96 78 100 100 100 100 100 100 81 32 78 100 100 100 100 100 100 100 83 71 34 10 30 5 63 8 100 74 100 100 100 100 100 100
100 100 100 100 100 100 100 100 100 5 85 94 100 100 100 100 100 100 100 100 100 100 100 100 100 100 100 96 10 49 80 99 94 63 100 100 100 100 100 100 100 100 100 100 100
100 100 100 100 100 100 100 100 11 28 91 100 100 100 100 100 100 100 100 100 100 100 100 100 72 100 100 100 90 99 100 100 100 100 100 98 100 100 100 99 100 100 100 100 100
100 100 100 100 100 100 100 100 38 69 96 49 92 99 91 100 100 100 100 100 100 100 100 100 100 100 100 99 100 100 100 100 100 100 99 94 100 100 100 100 100 100 100 100 100
100 100 100 100 100 100 100 100 75 53 96 68 100 100 100 86 100 100 100 100 100 100 100 100 100 100 100 100 100 100 100 100 100 100 100 100 100 100 100 100 88 93 100 100 74
100 100 100 100 100 100 100 99 96 97 99 100 100 100 76 94 100 92 48 100 100 100 100 100 100 100 100 100 100 100 100 100 100 100 100 100 100 100 100 100 100 5 5 77 73
100 100 100 100 100 100 100 100 100 100 100 100 100 94 100 88 98 50 41 85 98 99 100 100 100 100 100 100 100 100 100 100 100 100 100 100 100 100 100 100 100 100 100 100 15
100 100 100 100 100 100 100 100 100 100 100 100 100 100 100 100 99 94 60 63 100 100 100 100 100 100 100 100 100 100 100 100 100 100 100 100 100 100 100 100 100 100 71 19 97
100 100 100 100 100 100 100 100 100 100 100 100 100 100 100 100 100 100 100 100 100 100 100 100 100 100 100 100 100 100 100 100 100 100 100 100 100 100 100 100 100 100 100 100 86
100 100 100 100 100 100 100 100 100 100 100 100 100 100 100 100 86 100 100 100 100 100 100 92 100 77 100 99 100 100 100 100 100 100 100 100 100 100 100 100 100 57 96 76 80
100 100 100 100 100 100 100 100 100 100 100 100 90 100 100 100 100 100 100 100 100 100 100 100 100 100 100 100 100 100 100 100 100 100 100 100 100 100 100 87 59 27 38 30 72

GFSSW_prec_cloud_030.txt.gz
Cloud_Cover
22 5 5 17 5 19 8 11 5 5 5 6 34 12 4 4 2 0 4 2 0 0 0 0 0 0 3 5 3 0 0 0 0 0 0 0 0 0 0 0 0 0 0 0 0
25 94 48 6 5 5 5 5 89 86 78 44 6 7 5 5 0 1 0 0 0 1 0 2 0 2 1 5 0 0 0 0 0 0 0 0 0 0 0 0 0 0 0 0 0
100 50 19 34 9 5 5 5 5 53 42 5 6 100 97 5 3 0 3 5 0 0 0 1 0 3 2 1 0 0 0 0 0 0 0 0 0 0 0 0 0 0 0 0 0
100 100 62 5 31 5 5 5 57 5 89 100 59 78 54 20 98 5 0 5 3 0 0 0 0 0 0 0 0 0 0 0 0 0 0 0 0 0 0 4 0 0 0 0 0
100 100 100 77 73 52 35 55 38 74 14 28 78 100 97 24 1 5 3 5 5 2 0 0 0 0 0 0 0 0 0 0 2 5 0 0 0 0 2 0 0 0 0 0 0
100 100 100 100 100 100 98 100 68 85 90 5 42 100 96 5 5 5 5 5 2 1 0 0 0 0 0 0 0 0 0 5 4 4 0 0 0 0 0 0 0 0 0 0 0
100 100 100 100 100 100 100 87 100 100 100 5 6 16 35 9 5 4 5 5 4 1 0 5 5 5 0 0 0 0 5 5 11 5 0 0 1 0 0 0 0 0 0 4 0
100 100 100 100 100 100 100 100 100 100 100 59 18 13 37 5 9 5 2 5 5 5 4 5 1 0 0 0 0 2 5 5 0 4 5 5 0 0 1 4 5 5 5 4 0
100 100 100 100 100 100 100 100 100 100 100 92 58 9 59 68 5 5 5 5 5 5 5 5 5 4 3 0 0 0 8 3 4 5 3 0 0 5 4 1 5 5 0 2 0
100 100 100 100 100 100 100 100 100 100 100 100 100 40 97 100 42 5 5 5 5 5 7 12 6 46 43 1 5 10 5 4 0 2 0 2 1 2 0 3 5 1 2 0 0
100 100 100 100 100 100 100 100 100 100 100 100 95 71 76 90 92 10 10 28 20 5 5 5 5 99 0 5 5 5 5 6 5 5 3 5 74 5 0 5 5 0 5 0 0
100 100 100 100 100 100 100 100 100 100 100 100 81 99 93 100 100 100 6 29 53 51 5 10 45 7 5 5 5 5 5 13 5 5 2 5 98 82 0 1 4 1 0 0 0
100 100 100 100 100 100 100 100 100 100 33 97 66 92 100 100 100 100 100 100 100 22 16 5 23 20 5 5 5 5 5 10 5 18 5 8 89 100 9 0 0 0 2 2 5
100 100 100 100 100 100 100 100 100 96 12 40 68 8 35 100 100 100 100 100 100 44 5 6 53 82 5 24 7 4 5 5 5 5 21 81 27 100 67 5 6 5 5 5 5
100 100 100 100 100 100 100 100 100 100 11 8 99 10 50 100 100 100 100 100 100 100 100 70 99 73 49 98 5 5 5 5 5 5 5 98 16 94 100 100 65 13 6 28 65
100 100 100 100 100 100 100 100 100 100 3 5 18 74 100 100 100 100 100 100 100 100 98 27 59 48 99 99 17 12 93 97 6 5 19 100 71 15 100 100 100 98 99 100 100
100 100 100 100 100 100 100 100 100 22 2 2 33 100 100 100 100 100 100 100 100 100 100 100 100 91 61 100 100 70 63 5 5 6 13 99 33 69 97 100 100 100 100 100 100
100 100 100 100 100 100 100 100 51 2 5 3 36 100 100 100 100 100 100 92 99 100 100 81 99 100 100 100 100 76 32 54 5 6 5 11 88 99 80 86 100 100 100 100 100
100 100 100 100 100 100 100 100 5 100 100 26 85 100 100 100 100 100 100 100 100 96 84 26 44 99 100 100 98 80 20 100 73 12 5 5 72 100 100 100 100 100 100 100 100
100 100 100 100 100 100 100 100 5 100 100 100 100 100 100 100 100 100 100 95 100 100 100 100 14 5 49 100 100 100 100 100 100 18 5 52 70 83 100 100 100 100 100 100 100
100 100 100 100 100 100 100 100 91 56 98 100 100 100 86 98 100 58 68 30 100 100 100 100 100 100 31 71 100 100 100 100 100 79 93 82 8 100 85 100 100 100 100 100 100
100 100 100 100 100 100 100 67 100 100 78 100 100 100 100 94 100 13 15 99 100 100 100 100 100 100 100 100 100 77 68 100 100 100 34 7 72 100 100 100 100 100 100 100 100
100 100 100 100 100 100 94 93 100 98 76 100 93 100 100 84 54 7 8 100 100 98 100 100 100 100 100 99 100 100 100 100 100 100 100 62 88 92 100 100 100 100 100 100 100
100 100 100 100 100 100 100 94 100 100 100 96 88 100 100 73 81 68 100 100 100 100 100 100 98 62 53 100 100 100 100 100 100 91 100 84 100 100 100 100 100 100 100 100 100
100 100 100 100 100 100 100 100 100 100 100 100 100 91 100 100 100 84 100 100 100 100 100 100 95 100 96 100 96 73 90 100 100 100 35 95 100 100 100 100 99 100 100 100 100
100 100 100 100 100 100 100 100 100 100 100 100 100 100 100 100 99 100 100 100 100 100 100 100 100 100 100 100 100 100 74 100 94 100 100 100 74 100 100 100 100 100 100 100 100
100 100 100 100 100 100 100 100 100 100 100 100 100 100 100 55 100 100 100 100 100 100 100 100 100 100 100 98 100 100 52 22 100 100 100 94 95 100 100 100 100 100 100 100 57

GFSSW_prec_cloud_033.txt.gz
Cloud_Cover
97 47 16 26 54 7 5 5 10 5 14 24 30 5 5 33 27 5 0 0 0 0 1 0 0 0 0 0 0 0 0 0 0 0 0 0 0 0 0 0 0 0 0 0 0
63 100 92 8 48 96 74 5 99 83 6 5 42 5 7 13 51 5 2 0 4 0 0 0 0 0 2 0 5 5 1 0 0 0 0 0 0 0 0 0 0 0 0 0 0
100 89 100 100 5 20 50 12 5 5 5 15 78 99 54 5 14 6 5 0 0 4 4 0 0 0 0 3 0 0 0 0 0 0 0 0 0 5 1 0 0 0 0 0 0
100 100 100 82 90 89 27 7 36 5 5 5 8 95 5 5 23 100 5 5 3 0 0 4 0 0 0 0 0 0 0 0 0 0 0 0 0 5 0 0 0 0 0 0 0
100 100 100 100 100 100 100 51 72 12 10 5 5 5 94 6 20 27 17 5 1 1 4 5 4 0 0 0 0 0 0 0 0 0 0 0 0 0 0 0 0 0 0 0 0
100 100 100 100 100 100 100 66 62 55 53 85 48 5 20 56 48 100 74 5 3 0 0 4 3 0 0 0 0 0 0 0 4 5 0 0 2 0 0 0 0 0 0 0 0
100 100 100 100 100 100 100 95 49 99 68 82 86 100 83 5 54 100 35 5 4 5 5 4 1 0 0 0 0 0 0 0 5 0 3 1 0 5 0 0 0 0 0 0 0
100 100 100 100 100 100 100 100 100 84 53 100 100 97 100 16 63 5 33 41 5 0 5 4 4 5 0 0 0 0 0 3 5 5 5 0 5 1 0 0 0 0 0 0 0
100 100 100 100 100 100 100 100 100 100 100 100 100 100 100 63 11 10 46 10 11 5 5 5 5 5 3 0 0 0 2 5 3 3 5 5 3 0 3 4 4 4 0 0 0
100 100 100 100 100 100 100 100 100 100 100 100 100 100 100 100 14 8 86 41 24 16 5 5 5 12 32 1 0 5 83 5 1 2 5 5 1 1 5 5 5 0 0 2 0
100 100 100 100 100 100 100 100 100 100 100 100 98 100 100 100 100 78 9 18 100 48 38 7 5 99 4 0 5 5 5 5 2 0 3 5 5 5 5 5 5 5 0 0 5
100 100 100 100 100 100 100 100 100 100 100 100 100 96 43 100 100 100 41 7 61 87 34 37 15 25 5 2 2 5 5 98 2 5 2 5 12 4 4 42 14 4 0 3 40
100 100 100 100 100 100 100 100 100 100 100 100 100 100 100 100 85 86 100 80 100 84 100 5 6 16 5 5 5 5 5 44 2 2 0 4 42 6 3 7 39 5 5 0 0
100 100 100 100 100 100 100 100 100 100 100 100 100 16 75 100 59 100 100 100 100 100 92 5 37 100 5 10 19 5 5 5 5 2 0 1 7 70 98 5 6 5 5 0 0
100 100 100 100 100 100 100 100 100 100 23 49 84 100 100 99 71 98 100 100 100 100 100 72 100 100 89 67 5 5 6 6 5 2 0 2 2 94 100 100 51 6 26 22 5
100 100 100 100 97 100 100 100 100 100 42 5 91 100 100 99 96 81 100 100 87 98 91 48 93 98 100 100 5 5 22 68 33 3 4 12 18 5 92 100 100 100 97 34 5
100 100 100 100 99 100 100 100 100 100 35 11 42 100 100 100 100 100 100 100 100 100 74 97 22 67 87 93 12 5 6 5 5 13 5 14 96 5 81 100 100 100 100 92 5
100 100 100 100 100 100 100 100 97 13 76 100 12 8 99 100 100 100 100 100 100 100 100 100 65 26 95 98 16 5 5 29 9 5 7 5 1 34 99 90 100 100 100 81 32
100 100 100 100 100 100 100 100 70 100 98 51 93 7 100 100 100 100 100 100 100 100 100 100 71 66 44 10 5 16 92 100 80 5 5 12 98 92 100 100 100 100 74 99 100
100 100 100 100 100 100 100 100 74 100 81 38 8 5 35 100 100 100 100 100 100 100 100 62 30 5 11 94 66 100 73 99 100 25 32 1 4 33 100 100 100 100 91 100 100
100 100 100 100 100 100 100 100 100 93 100 79 10 8 79 100 100 100 100 100 100 100 100 89 61 5 3 37 100 92 19 38 56 10 5 5 10 22 23 97 100 100 100 100 100
100 100 100 100 100 100 100 95 100 98 100 91 48 32 100 100 100 100 100 100 100 100 100 100 95 26 5 5 99 67 99 100 100 100 100 65 24 6 46 100 100 100 100 100 100
100 100 100 100 100 100 100 100 100 100 59 92 66 100 100 100 100 100 100 100 100 100 100 100 100 42 49 51 66 100 100 100 100 100 12 75 72 62 31 22 79 100 100 100 100
100 100 100 100 100 100 100 100 100 93 100 100 100 100 100 78 85 100 100 76 100 100 100 100 100 30 40 100 100 100 100 100 100 95 91 70 100 100 100 100 100 100 100 100 100
100 100 100 100 100 100 100 100 100 100 100 100 100 98 100 100 98 100 100 100 100 100 100 100 100 100 100 100 100 98 97 100 100 100 70 82 56 100 100 100 100 100 40 55 100
100 100 100 100 100 100 100 100 100 100 100 100 100 100 100 100 100 100 100 100 100 100 100 100 100 100 89 94 100 100 63 6 57 100 78 99 16 100 100 100 100 85 29 13 96
100 100 100 100 100 100 100 100 100 100 100 100 72 100 100 38 100 100 100 100 100 100 100 100 100 100 96 100 100 100 26 97 17 5 66 32 89 100 100 100 100 96 100 100 100

GFSSW_prec_cloud_036.txt.gz
Cloud_Cover
100 97 28 5 5 5 5 5 4 5 5 5 5 5 4 26 5 5 21 14 5 0 0 0 0 0 0 0 0 0 0 0 0 0 0 0 0 0 0 0 0 0 0 0 0
15 100 91 100 8 5 5 5 5 35 70 5 9 5 5 40 5 6 5 5 0 0 0 0 0 0 1 0 0 0 0 0 0 0 0 0 0 0 0 0 0 0 0 0 0
68 9 99 100 84 94 20 77 11 5 14 61 79 55 5 24 30 28 5 3 4 0 0 0 2 0 0 1 4 0 0 0 0 0 0 0 0 0 0 0 0 0 0 0 0
100 79 9 37 100 99 100 65 100 100 100 5 17 56 5 78 100 98 5 5 36 3 0 5 1 3 0 0 0 0 0 0 0 0 0 0 0 0 0 0 0 0 0 0 0
100 100 100 64 24 71 100 96 19 53 31 23 5 5 8 14 62 62 18 5 82 11 5 0 0 4 2 0 0 0 0 0 0 0 0 0 0 0 0 0 0 0 0 0 0
100 100 100 100 100 100 100 94 7 95 44 25 5 5 5 42 5 53 100 100 100 100 34 5 0 3 5 5 0 0 0 0 0 0 0 0 0 5 0 0 0 0 0 0 0
100 100 100 100 100 100 100 100 100 100 100 16 5 5 40 21 19 37 5 6 98 76 32 5 2 5 5 5 0 0 1 0 0 0 0 0 0 5 5 0 0 0 0 0 0
100 100 100 100 100 100 100 100 100 100 100 50 5 18 76 64 97 100 5 5 48 21 5 5 1 2 5 1 2 0 0 0 1 0 0 0 4 5 1 0 0 0 0 0 0
100 100 100 100 100 100 100 100 100 100 100 100 36 43 11 74 100 100 94 38 5 5 5 5 5 5 5 5 5 5 0 0 5 0 0 0 4 5 5 0 0 0 0 0 4
100 100 100 100 100 100 100 100 100 100 100 100 100 98 63 63 100 100 100 88 18 12 5 49 29 69 34 5 5 0 5 3 0 0 0 0 3 5 5 0 0 0 0 0 0
100 100 100 100 100 100 100 100 100 100 100 100 100 100 100 84 72 97 100 100 85 74 36 6 88 100 37 0 5 0 5 5 2 0 0 0 5 0 5 5 0 5 5 1 4
100 100 100 100 100 100 100 100 100 100 100 100 100 100 100 100 100 100 90 63 100 99 18 72 87 100 5 5 0 0 5 5 5 0 0 0 5 5 5 15 4 5 5 5 6
100 100 100 100 100 100 100 100 100 100 100 100 100 100 100 100 100 100 96 87 100 100 100 50 82 100 59 9 1 2 0 5 1 0 0 0 3 0 0 6 7 0 0 39 55
100 100 100 100 100 100 100 100 100 100 62 100 100 100 100 100 100 100 100 100 100 100 100 16 97 94 88 5 5 5 5 5 5 0 0 0 1 5 5 0 0 12 4 1 5
100 100 100 100 100 100 100 100 100 100 71 83 100 100 100 100 100 100 100 100 100 100 93 5 85 11 99 100 15 5 5 4 5 0 0 3 0 84 38 6 92 3 5 6 87
100 100 100 100 100 100 100 100 100 100 100 84 100 100 100 100 100 100 100 100 100 100 69 14 20 63 100 100 35 28 28 5 5 3 0 27 12 1 98 100 32 10 6 5 5
100 100 100 100 100 100 100 100 100 100 98 100 100 100 100 100 100 100 100 100 100 100 100 100 6 38 89 99 99 38 58 4 1 5 2 5 1 10 24 84 100 100 72 50 5
100 100 100 100 100 100 100 100 100 100 100 98 23 21 100 100 100 100 100 100 100 100 100 100 100 100 100 100 45 5 5 5 5 2 2 5 17 100 91 10 90 100 100 93 70
100 100 100 100 100 100 100 100 99 82 63 72 20 28 100 100 100 100 100 100 100 100 100 100 100 99 100 100 86 6 6 99 38 5 4 1 46 41 98 100 100 100 100 100 100
100 100 100 100 100 100 100 100 79 54 8 91 88 5 5 9 100 100 100 100 100 100 100 100 61 18 83 81 39 7 90 100 94 6 5 1 5 83 98 100 97 100 100 100 100
100 100 100 100 100 100 100 100 92 85 100 100 69 48 8 10 31 92 100 100 100 100 100 100 100 12 5 18 99 94 13 74 100 28 8 4 0 3 52 100 100 100 100 100 100
100 100 100 100 100 100 100 78 20 72 100 80 100 99 96 97 73 100 100 100 100 100 100 100 100 40 37 53 100 59 5 83 100 81 11 3 21 5 5 32 100 100 100 100 48
100 100 100 100 100 100 100 100 100 100 92 100 71 100 97 100 98 43 100 100 100 100 100 100 100 100 90 5 6 87 100 99 100 32 0 5 27 88 56 5 13 30 49 98 64
100 100 100 100 100 100 100 100 100 100 100 100 58 100 100 100 55 55 9 100 100 100 100 100 100 89 70 65 100 6 81 100 85 5 65 4 87 100 91 6 46 71 100 100 100
100 100 100 100 100 100 100 100 100 100 100 100 100 100 100 98 68 11 99 100 100 100 100 100 100 100 100 100 100 40 58 73 60 55 42 88 81 100 100 100 99 26 41 99 100
100 100 100 100 100 100 100 100 100 100 100 100 100 100 100 97 18 100 100 99 84 100 100 100 100 100 100 100 100 100 92 60 100 100 100 100 2 100 100 91 8 5 11 30 47
100 100 100 100 100 100 100 100 100 100 100 100 100 100 100 100 95 100 100 100 100 100 100 100 100 100 82 100 100 100 6 100 85 10 38 20 15 43 70 15 40 17 81 97 93

GFSSW_prec_cloud_042.txt.gz
Cloud_Cover
100 100 78 50 15 67 92 43 5 5 16 1 0 0 0 0 0 0 0 0 3 2 0 5 0 0 0 0 0 0 0 0 0 0 0 0 0 0 0 0 0 0 0 0 0
100 100 93 86 5 5 5 5 5 2 0 11 0 0 4 5 5 0 0 1 3 5 3 3 0 5 0 0 0 0 0 0 0 0 0 0 0 0 0 0 0 0 0 0 0
100 99 90 99 12 51 15 8 13 6 46 25 2 0 5 5 5 5 5 5 7 5 5 5 5 5 4 0 0 0 0 0 0 0 0 0 0 0 0 0 0 0 0 0 0
100 100 100 97 90 62 63 82 83 58 100 78 5 5 5 5 5 20 17 32 5 5 5 5 5 4 20 4 1 0 0 0 0 0 0 0 0 0 0 0 0 0 0 0 0
100 100 100 100 97 69 100 100 64 78 100 98 70 10 43 24 9 10 5 5 5 5 37 52 5 2 32 10 14 2 0 0 0 0 0 0 0 0 0 0 0 0 0 0 0
100 100 100 100 100 97 52 91 88 94 9 95 51 82 7 52 52 38 48 64 11 16 5 4 5 30 70 92 86 5 0 0 0 0 0 0 0 0 0 0 0 0 0 0 0
100 100 100 100 100 90 98 6 98 89 96 6 5 33 83 85 59 7 7 5 5 5 5 5 12 55 49 68 64 5 1 0 0 0 0 0 0 0 0 0 0 0 0 0 0
100 100 100 100 100 100 98 8 5 7 82 76 72 42 13 40 63 55 88 5 5 5 5 5 5 5 5 16 64 5 5 0 0 0 0 0 0 0 0 0 0 0 0 0 0
100 100 100 100 100 100 100 100 77 93 5 40 73 100 62 59 32 38 28 6 12 17 5 5 17 5 11 31 7 5 5 3 0 0 0 0 0 0 0 0 0 0 0 0 0
100 100 100 100 100 100 100 100 100 100 64 37 15 70 100 99 25 22 29 10 30 59 42 5 5 34 96 17 5 5 2 5 1 0 4 3 2 0 0 0 0 0 0 0 0
100 100 100 100 100 100 100 100 100 100 100 94 98 68 88 100 100 67 90 79 40 53 20 8 25 100 90 33 32 5 5 5 5 0 1 5 5 0 0 0 0 0 0 0 0
100 100 100 100 100 100 100 100 100 100 100 100 100 100 100 100 100 100 100 100 100 100 100 100 100 100 100 100 100 99 6 7 2 0 0 5 23 2 0 5 5 0 0 0 0
100 100 100 100 100 100 100 100 100 100 100 100 100 100 100 100 100 100 100 100 100 100 100 100 100 100 100 100 100 100 48 6 2 0 0 0 18 5 10 12 6 5 0 0 0
100 100 100 100 100 100 100 100 100 100 100 100 100 100 100 100 100 100 100 100 100 100 100 97 100 100 100 100 100 66 100 29 5 0 0 0 9 45 78 14 5 5 0 3 4
100 100 100 100 100 100 100 100 100 100 88 100 100 100 100 100 100 100 100 100 100 100 100 100 100 100 100 100 100 100 96 5 1 0 0 5 0 98 100 93 24 5 5 5 5
100 100 100 100 100 100 100 100 100 100 98 74 100 100 100 100 100 100 100 100 100 100 100 100 100 100 100 100 100 100 15 5 0 0 0 41 0 15 100 100 31 5 5 5 1
100 100 100 100 100 100 100 100 100 100 10 27 100 100 100 100 100 100 100 100 100 100 100 100 100 100 100 100 100 99 80 2 0 0 0 1 0 94 99 100 100 82 8 3 5
100 100 100 100 100 100 100 100 100 100 82 5 10 100 100 100 100 100 100 100 100 100 100 100 100 100 100 100 100 100 59 2 0 3 2 0 1 5 5 79 100 100 100 97 31
100 100 100 100 100 100 100 100 97 30 55 100 83 87 98 100 72 94 100 100 100 100 100 83 51 86 90 33 100 23 1 89 6 23 27 0 0 0 0 5 74 100 52 6 10
100 100 100 100 100 100 100 100 54 100 68 100 99 68 79 82 99 100 43 8 74 97 100 93 26 16 63 18 5 66 88 15 3 0 20 1 0 0 0 1 5 10 18 17 5
100 100 100 100 100 100 100 86 5 52 100 100 58 90 98 88 100 99 62 60 100 100 100 100 100 98 100 100 100 100 20 6 60 5 5 5 0 3 1 5 5 3 5 13 5
100 94 100 100 100 100 100 87 7 100 100 52 41 76 38 100 100 100 13 99 94 100 100 100 100 84 11 21 20 32 2 3 7 4 2 1 23 17 5 5 5 5 5 16 8
100 96 44 100 100 100 100 100 100 100 100 100 70 52 100 100 99 14 5 94 100 100 100 100 100 100 100 18 6 12 100 95 92 40 0 2 8 8 4 5 5 36 5 4 0
82 99 13 89 100 100 100 100 100 100 100 100 100 100 100 100 99 5 22 13 100 100 100 100 100 100 100 100 100 48 38 7 97 34 1 0 0 2 5 5 4 4 1 5 5
89 81 51 68 41 100 100 99 100 100 100 100 100 100 100 100 100 87 5 31 98 100 100 100 100 100 100 100 100 100 100 99 19 28 35 2 2 88 58 0 38 1 1 4 4
100 66 89 12 25 94 64 100 100 100 100 100 100 100 100 100 99 98 100 99 99 100 100 100 90 99 99 100 100 100 100 98 29 34 69 12 4 100 100 14 2 3 0 1 5
20 46 100 25 18 42 98 100 100 100 100 100 100 100 100 100 100 100 100 100 100 100 100 100 100 100 82 99 100 100 8 46 74 8 5 4 2 100 86 100 11 4 5 5 5

GFSSW_prec_cloud_045.txt.gz
Cloud_Cover
99 98 100 100 100 100 100 100 100 100 100 100 100 100 100 100 100 98 19 5 0 0 0 0 0 0 0 0 0 0 0 0 0 0 0 0 0 0 0 0 0 0 0 0 0
100 100 100 100 100 100 100 100 100 100 100 100 100 100 100 100 100 24 12 2 0 0 0 0 1 0 0 0 0 0 0 0 0 0 0 0 0 0 0 0 0 0 0 0 0
100 100 100 100 100 100 100 100 100 100 100 100 100 100 100 98 85 13 0 0 0 0 0 1 5 5 3 4 5 0 0 0 0 0 0 0 0 0 0 0 0 0 0 0 0
100 100 100 100 100 100 100 100 100 100 100 100 99 70 94 80 10 0 0 0 3 0 0 3 0 5 7 3 5 5 5 1 0 0 0 0 0 0 0 0 0 0 0 0 0
100 100 100 100 100 100 100 100 42 39 98 82 80 69 13 5 5 0 2 5 0 0 0 1 5 5 25 5 3 5 8 8 1 0 0 0 0 0 0 0 0 0 0 0 0
100 100 100 100 100 100 100 100 37 38 14 34 18 5 5 5 5 5 5 5 4 4 5 5 5 5 0 2 15 59 98 76 0 0 0 0 0 0 0 0 0 0 0 0 0
100 100 100 100 100 100 100 90 37 35 72 8 75 5 6 5 5 5 5 5 7 5 5 33 5 3 0 3 5 6 8 5 2 1 0 0 0 0 0 0 0 0 0 0 0
100 100 100 100 100 100 100 100 98 26 11 92 50 54 32 8 38 9 5 5 5 5 6 5 5 5 5 5 5 5 4 6 5 5 0 0 0 0 0 0 0 0 0 0 0
100 100 100 100 100 100 100 100 100 100 84 60 86 95 12 30 60 7 18 10 5 5 5 5 5 18 5 5 5 0 5 6 5 0 0 0 0 0 0 0 0 0 0 0 0
100 100 100 100 100 100 100 100 100 100 100 83 99 32 62 55 34 10 13 45 9 5 5 5 22 23 62 5 5 5 5 32 5 1 1 2 4 0 0 0 0 0 0 0 1
100 100 100 100 100 100 100 100 100 100 100 100 100 100 50 55 17 38 28 47 60 82 19 5 24 100 31 5 5 5 5 72 55 5 0 5 5 0 5 5 3 0 0 0 0
100 100 100 100 100 100 100 100 100 100 100 100 100 100 100 100 58 64 100 98 20 52 44 60 100 100 100 96 36 5 5 75 71 5 0 0 5 5 0 5 5 10 0 0 0
100 100 100 100 100 100 100 100 100 100 100 100 100 100 100 100 100 100 100 100 100 100 100 100 100 100 100 100 100 62 78 99 19 19 0 0 2 8 53 4 0 5 5 0 0
100 100 100 100 100 100 100 100 100 100 100 100 100 100 100 100 100 100 100 100 100 100 100 100 100 100 100 100 100 71 84 49 12 3 0 0 0 34 100 100 84 3 0 5 4
100 100 100 100 100 100 100 100 100 100 100 100 100 100 100 100 100 100 100 100 100 100 100 100 100 100 100 100 100 100 100 40 5 0 0 0 0 91 100 100 100 5 0 0 5
100 100 100 100 100 100 100 100 100 100 100 72 100 100 100 100 100 100 100 100 100 100 100 100 100 100 100 100 100 100 53 28 5 0 0 0 0 57 97 100 100 49 0 0 0
100 100 100 100 100 100 100 100 100 100 100 100 100 100 100 100 100 100 100 100 100 100 100 100 100 100 100 100 100 100 100 9 2 0 0 0 0 40 87 89 65 98 4 0 0
100 100 100 100 100 100 100 100 100 100 84 5 65 99 100 100 100 100 100 100 100 100 100 100 100 100 100 100 100 100 90 43 10 3 0 0 0 0 8 43 6 5 57 4 3
100 100 100 100 100 100 100 100 82 100 62 99 40 23 68 100 100 100 100 100 100 100 100 100 100 100 100 100 100 100 100 100 87 27 12 0 0 0 0 14 4 0 9 98 36
100 100 100 100 100 100 100 100 89 23 96 95 84 89 98 68 100 98 95 94 100 100 100 100 100 100 100 100 100 100 65 40 14 1 4 0 0 0 5 5 10 0 3 5 5
100 100 100 100 100 100 100 97 8 80 99 94 62 72 78 100 100 78 36 6 100 100 100 100 100 92 51 61 73 24 5 4 11 2 5 4 0 0 5 5 5 5 5 5 5
100 69 100 100 100 100 100 100 96 18 100 100 87 78 72 87 100 100 99 100 100 100 100 100 100 8 5 5 5 5 4 5 5 5 79 2 0 5 0 3 5 0 5 2 5
45 5 70 100 100 100 100 100 77 100 100 100 100 99 100 100 100 54 77 100 100 100 100 100 100 21 6 30 53 60 100 100 100 88 5 2 1 81 0 3 5 0 0 0 0
46 31 48 100 100 100 99 100 100 100 100 100 100 100 100 100 97 49 5 100 100 100 100 100 100 100 49 63 36 32 9 49 99 8 4 0 2 5 78 5 5 0 0 0 0
96 18 7 96 34 94 100 100 100 100 100 100 100 100 100 100 100 36 5 14 94 100 100 100 100 100 100 100 100 47 21 94 43 4 7 0 1 93 100 96 4 4 1 2 0
100 5 5 5 72 91 48 73 97 100 100 100 100 100 100 100 100 100 45 100 100 100 100 100 100 100 100 96 100 84 51 93 100 15 82 64 19 100 100 99 6 6 3 1 0
100 100 98 27 5 76 54 67 6 85 100 100 100 100 100 100 100 100 100 100 100 100 100 100 100 100 100 98 100 100 6 8 75 26 5 4 54 100 100 100 98 98 100 73 14

GFSSW_prec_cloud_048.txt.gz
Cloud_Cover
100 100 100 100 100 100 100 100 100 100 100 100 100 100 100 100 96 100 95 100 68 23 78 54 5 0 0 0 0 0 0 0 0 0 0 0 0 0 0 0 0 0 0 0 0
100 100 100 100 100 100 100 100 100 100 100 100 100 100 100 100 100 100 91 92 24 70 29 5 0 0 0 0 0 0 0 0 0 0 0 0 0 0 0 0 0 0 0 0 0
100 100 100 100 100 100 100 100 100 100 100 100 100 100 100 100 100 100 100 100 83 82 97 5 0 0 0 0 0 0 0 0 0 0 0 0 0 0 0 0 0 0 0 0 0
100 100 100 100 100 100 100 100 100 100 100 100 100 100 100 100 100 100 100 100 100 31 5 3 0 0 0 0 5 5 0 3 5 5 0 0 0 0 0 0 0 0 0 0 0
100 100 100 100 100 100 100 100 100 100 100 100 100 100 100 100 100 100 100 81 70 38 5 0 0 0 0 0 0 3 0 3 5 5 3 0 0 0 0 0 0 0 0 0 0
100 100 100 100 100 100 100 100 100 100 100 100 100 100 100 100 100 87 100 52 5 5 5 0 0 0 0 0 0 0 0 3 5 2 5 3 0 0 0 0 0 0 0 0 0
100 100 100 100 100 100 100 100 100 100 100 100 100 100 100 100 100 100 37 22 5 5 0 0 0 0 0 5 5 0 0 0 0 5 26 5 0 0 0 0 0 0 0 0 0
100 100 100 100 100 100 100 96 82 100 100 100 100 100 100 100 88 37 5 5 5 5 0 0 0 0 0 0 5 1 0 0 0 5 0 0 0 0 0 0 0 0 0 0 0
100 100 100 100 100 100 100 100 96 76 95 100 96 99 100 96 96 34 15 5 5 4 2 0 0 0 0 5 3 2 5 2 3 0 0 0 0 0 0 0 0 0 0 0 0
100 100 100 100 100 100 100 100 100 100 100 93 100 79 97 96 84 82 6 13 23 5 5 5 5 5 5 5 5 5 5 5 5 0 0 1 4 0 0 0 0 0 0 0 0
100 100 100 100 100 100 100 100 100 100 100 100 96 80 62 57 68 59 76 9 16 6 43 52 6 40 5 1 5 6 5 7 5 0 0 0 16 5 0 0 0 0 5 0 0
100 100 100 100 100 100 100 100 100 100 100 100 100 100 100 100 76 100 89 84 54 48 38 51 84 33 5 5 8 9 37 98 5 0 0 0 1 5 5 5 4 1 0 4 2
100 100 100 100 100 100 100 100 100 100 100 100 100 100 100 100 100 100 92 88 89 58 36 83 97 100 16 46 74 20 27 87 65 23 0 0 0 2 71 12 5 5 0 0 0
100 100 100 100 100 100 100 100 100 100 100 100 100 100 100 100 100 100 100 99 61 93 90 47 100 100 100 90 44 46 76 23 12 5 5 0 0 3 97 100 88 99 5 0 0
100 100 100 100 100 100 100 100 100 100 100 100 100 100 100 100 100 100 100 100 100 100 100 93 100 100 100 100 99 55 100 90 26 5 3 0 0 5 100 100 100 100 61 0 0
100 100 100 100 100 100 100 100 100 100 100 100 100 100 100 100 100 100 100 100 100 100 100 100 88 100 100 100 100 100 100 66 5 5 0 0 0 17 43 84 100 100 9 0 0
100 100 100 100 100 100 100 100 100 100 80 100 100 100 100 100 100 100 100 100 100 100 100 100 100 100 100 100 100 100 100 100 53 3 0 0 0 0 100 1 47 5 0 0 0
100 100 100 100 100 100 100 100 100 100 88 21 88 100 100 100 100 100 100 100 100 100 100 100 100 100 100 100 100 100 100 100 27 5 1 0 0 0 1 99 0 0 3 0 0
100 100 100 100 100 100 100 100 99 74 88 97 100 100 100 100 100 100 100 100 100 100 100 100 100 100 100 100 100 100 100 100 100 40 4 0 0 0 4 22 9 2 59 16 0
100 72 100 100 100 100 100 100 55 89 32 66 100 98 98 100 100 100 98 87 100 100 100 100 100 100 100 100 100 100 100 100 100 100 67 4 0 0 5 3 0 0 2 7 0
100 100 100 100 100 100 100 100 73 76 89 100 98 96 37 100 100 100 100 65 71 99 100 100 100 100 100 100 100 100 100 100 94 24 5 5 5 0 4 2 0 2 3 0 0
100 87 100 100 100 100 100 12 98 95 99 100 100 100 50 52 100 100 100 100 100 100 100 100 98 66 91 96 85 74 37 10 5 19 44 7 0 5 0 0 5 5 1 0 0
100 100 100 100 100 99 53 48 6 97 99 100 100 100 100 99 100 100 93 100 100 100 100 100 100 48 7 38 98 94 100 95 46 46 0 1 10 100 0 3 5 5 0 0 4
100 81 100 100 100 100 100 90 96 10 49 100 100 100 100 100 100 41 24 97 100 100 100 100 100 31 5 30 22 79 84 99 100 94 2 9 15 34 56 89 72 17 0 0 0
100 80 10 93 100 100 100 100 100 100 100 100 100 100 100 100 100 98 19 38 100 100 100 100 100 86 62 98 95 8 9 100 71 4 9 8 2 100 100 100 96 11 0 0 0
100 98 97 5 5 32 96 56 100 100 100 100 100 100 100 100 100 100 100 100 98 100 100 100 100 100 11 96 100 100 95 63 5 5 90 5 2 99 100 100 68 65 5 1 0
98 100 100 78 33 40 4 39 72 100 100 100 100 100 100 100 100 100 100 100 89 91 100 100 100 100 82 6 100 100 30 5 16 5 4 4 4 100 100 100 100 38 58 98 90